Home   Weather   Stade   Past weeks

Flag for Germany Past Weather in Stade, Lower Saxony, Germany — Yesterday and Last 2 Weeks

Now
37 °F

Dense fog.


Feels Like: 37 °F
Forecast: 35 / 43 °F
Wind: 2 mph from North

Location: Hamburg-Finkenwerder

Current Time: Nov 25, 2017 at 1:22:12 am

Latest Report: Nov 25, 2017 at 12:50 am


Visibility: 0 mi

Pressure: 29.86 "Hg

Humidity: 100%

Dew Point: 37 °F

Location of StadeLocation

Past Weather in Stade — Graph

°F

Stade Temperature Yesterday

Maximum temperature yesterday: 46 °F (at 11:20 am)
Minimum temperature yesterday: 36 °F (at 10:50 pm)
Average temperature yesterday: 42 °F

High & Low Weather Summary for the Past Weeks

 TemperatureHumidityPressure
High57 °F (Nov 23, 11:50 am)100% (Nov 9, 11:50 pm)30.27 "Hg (Nov 9, 11:50 pm)
Low32 °F (Nov 13, 8:20 am)58% (Nov 23, 6:50 am)29.45 "Hg (Nov 23, 11:50 am)
Average43 °F90%29.86 "Hg
* Reported Nov 9 11:20 pm — Nov 24 11:50 pm, Stade. Weather by CustomWeather, © 2017

Note: Actual official high and low records may vary slightly from our data, if they occured in-between our weather recording intervals... More about our weather records

Advertising

Stade Weather History for the Previous 24 Hours

Scroll right to see more
 ConditionsComfort  
Time TempWeatherWind HumidityBarometerVisibility
11:50 pm
Fri, Nov 24
36 °FPassing clouds.No wind100%29.86 "Hg0 mi
11:20 pm36 °FPartly cloudy.2 mph93%29.86 "Hg1 mi
10:50 pm36 °FPassing clouds.No wind100%29.86 "Hg0 mi
10:20 pm37 °FPassing clouds.2 mph100%29.86 "Hg1 mi
9:50 pm37 °FClear.2 mph100%29.86 "Hg1 mi
9:20 pm37 °FClear.1 mph100%29.86 "Hg3 mi
8:50 pm39 °FPassing clouds.3 mph93%29.86 "Hg4 mi
8:20 pm39 °FPassing clouds.6 mph93%29.86 "Hg5 mi
7:50 pm37 °FClear.5 mph100%29.86 "Hg6 mi
7:20 pm39 °FClear.5 mph93%29.83 "Hg10 mi
6:50 pm41 °FClear.3 mph93%29.83 "Hg10 mi
6:20 pm41 °FClear.5 mph93%29.83 "Hg10 mi
5:50 pm41 °FPassing clouds.5 mph93%29.83 "HgN/A
5:20 pm43 °FPassing clouds.7 mph93%29.83 "HgN/A
4:50 pm43 °FPassing clouds.7 mph93%29.80 "HgN/A
4:20 pm43 °FPassing clouds.6 mph93%29.80 "HgN/A
3:50 pm45 °FSunny.6 mph93%29.80 "Hg10 mi
3:20 pm45 °FBroken clouds.7 mph87%29.77 "HgN/A
2:50 pm46 °FBroken clouds.9 mph82%29.77 "HgN/A
2:20 pm46 °FPartly sunny.12 mph82%29.77 "HgN/A
1:50 pm46 °FSprinkles. Broken clouds.13 mph82%29.77 "HgN/A
1:20 pm46 °FScattered clouds.9 mph87%29.74 "HgN/A
12:50 pm46 °FScattered clouds.8 mph87%29.74 "HgN/A
12:20 pm46 °FLight rain. Broken clouds.8 mph87%29.74 "HgN/A
11:50 am45 °FLight rain. Partly sunny.10 mph93%29.74 "HgN/A
11:20 am46 °FScattered clouds.7 mph87%29.71 "HgN/A
10:50 am45 °FPartly sunny.6 mph93%29.71 "HgN/A
10:20 am45 °FBroken clouds.5 mph93%29.71 "HgN/A
9:50 am45 °FLight rain. Partly sunny.3 mph93%29.71 "HgN/A
9:20 am43 °FLight rain. Broken clouds.5 mph100%29.71 "Hg5 mi
8:50 am43 °FLight rain. Broken clouds.5 mph100%29.71 "Hg4 mi
8:20 am43 °FLight rain. Partly sunny.6 mph100%29.74 "Hg4 mi
7:50 am43 °FLight rain. Passing clouds.5 mph100%29.71 "Hg6 mi
6:50 am45 °FLight rain. Passing clouds.7 mph87%29.71 "Hg6 mi
6:20 am45 °FPassing clouds.7 mph87%29.71 "HgN/A
5:50 am43 °FPassing clouds.5 mph93%29.74 "HgN/A
5:20 am43 °FOvercast.No wind87%29.74 "HgN/A
4:50 am41 °FPassing clouds.2 mph93%29.71 "HgN/A
4:20 am41 °FPartly cloudy.6 mph93%29.74 "HgN/A
3:50 am43 °FPassing clouds.6 mph87%29.74 "HgN/A
3:20 am43 °FPassing clouds.7 mph87%29.74 "HgN/A
2:50 am41 °FPassing clouds.8 mph93%29.74 "HgN/A
2:20 am43 °FPassing clouds.9 mph87%29.74 "HgN/A
1:50 am43 °FPassing clouds.10 mph87%29.74 "HgN/A
1:20 am45 °FPassing clouds.10 mph81%29.74 "HgN/A
Weather by CustomWeather, © 2017

See weather overview